• în România
  • Lista ţărilor
  • Pe 7 zile
  • Temperatura apei
  • Hartă satelitară
  • Meteo pe hartă
  • Widget-uri
  • user-avatar
    Intrare

    Meteo pe oră la Baranovichi

    Astăzi, 26 Februarie, Luni

    Timp Temperatura Precipitaţii Vânt Presiune Umiditate
    00:00 -18°C° 0 mm 2 m/s 754 mmHg 93%
    01:00 -18°C° 0 mm 2 m/s 754 mmHg 94%
    02:00 -17°C° 0 mm 1 m/s 754 mmHg 94%
    03:00 -19°C° 0 mm 2 m/s 754 mmHg 94%
    04:00 -19°C° 0 mm 2 m/s 754 mmHg 94%
    05:00 -19°C° 0 mm 2 m/s 754 mmHg 94%
    06:00 -19°C° 0 mm 2 m/s 754 mmHg 94%
    07:00 -20°C° 0 mm 2 m/s 754 mmHg 94%
    08:00 -20°C° 0 mm 2 m/s 753 mmHg 94%
    09:00 -19°C° 0 mm 2 m/s 753 mmHg 90%
    10:00 -16°C° 0 mm 1 m/s 753 mmHg 86%
    11:00 -15°C° 0 mm 1 m/s 753 mmHg 82%
    12:00 -14°C° 0 mm 1 m/s 753 mmHg 80%
    13:00 -13°C° 0 mm 1 m/s 753 mmHg 78%
    14:00 -12°C° 0 mm 1 m/s 753 mmHg 76%
    15:00 -13°C° 0 mm 1 m/s 753 mmHg 78%
    16:00 -13°C° 0 mm 1 m/s 752 mmHg 80%
    17:00 -13°C° 0 mm 1 m/s 752 mmHg 83%
    18:00 -14°C° 0 mm 1 m/s 752 mmHg 85%
    19:00 -15°C° 0 mm 1 m/s 752 mmHg 88%
    20:00 -16°C° 0 mm 1 m/s 752 mmHg 90%
    21:00 -16°C° 0 mm 1 m/s 752 mmHg 91%
    22:00 -17°C° 0 mm 1 m/s 752 mmHg 91%
    23:00 -17°C° 0 mm 1 m/s 752 mmHg 92%

    Mâine, 27 Februarie, Marţi

    Timp Temperatura Precipitaţii Vânt Presiune Umiditate
    00:00 -17°C° 0 mm 1 m/s 752 mmHg 92%
    01:00 -18°C° 0 mm 1 m/s 752 mmHg 92%
    02:00 -18°C° 0 mm 1 m/s 752 mmHg 93%
    03:00 -20°C° 0 mm 2 m/s 752 mmHg 93%
    04:00 -20°C° 0 mm 2 m/s 752 mmHg 94%
    05:00 -21°C° 0 mm 2 m/s 752 mmHg 94%
    06:00 -21°C° 0 mm 2 m/s 753 mmHg 94%
    07:00 -21°C° 0 mm 2 m/s 753 mmHg 94%
    08:00 -23°C° 0 mm 3 m/s 753 mmHg 94%
    09:00 -22°C° 0 mm 3 m/s 753 mmHg 91%
    10:00 -21°C° 0 mm 3 m/s 754 mmHg 88%
    11:00 -19°C° 0 mm 4 m/s 754 mmHg 85%
    12:00 -19°C° 0 mm 4 m/s 754 mmHg 84%
    13:00 -18°C° 0 mm 4 m/s 754 mmHg 82%
    14:00 -18°C° 0 mm 5 m/s 754 mmHg 81%
    15:00 -19°C° 0 mm 5 m/s 754 mmHg 82%
    16:00 -19°C° 0 mm 5 m/s 754 mmHg 84%
    17:00 -19°C° 0 mm 5 m/s 754 mmHg 85%
    18:00 -19°C° 0 mm 5 m/s 754 mmHg 86%
    19:00 -20°C° 0 mm 5 m/s 755 mmHg 86%
    20:00 -20°C° 0 mm 5 m/s 755 mmHg 87%
    21:00 -20°C° 0 mm 5 m/s 755 mmHg 87%
    22:00 -20°C° 0 mm 5 m/s 755 mmHg 87%
    23:00 -21°C° 0 mm 6 m/s 755 mmHg 87%

    Poimâine, 28 Februarie, Miercuri

    Timp Temperatura Precipitaţii Vânt Presiune Umiditate
    00:00 -21°C° 0 mm 6 m/s 755 mmHg 87%
    01:00 -21°C° 0 mm 6 m/s 755 mmHg 87%
    02:00 -21°C° 0 mm 6 m/s 755 mmHg 87%
    03:00 -22°C° 0 mm 6 m/s 755 mmHg 87%
    04:00 -22°C° 0 mm 6 m/s 755 mmHg 86%
    05:00 -22°C° 0 mm 6 m/s 755 mmHg 86%
    06:00 -22°C° 0 mm 6 m/s 755 mmHg 86%
    07:00 -22°C° 0 mm 6 m/s 755 mmHg 86%
    08:00 -23°C° 0 mm 7 m/s 755 mmHg 85%
    09:00 -23°C° 0,1 mm 7 m/s 755 mmHg 84%
    10:00 -21°C° 0,1 mm 6 m/s 754 mmHg 83%
    11:00 -20°C° 0,1 mm 6 m/s 754 mmHg 82%
    12:00 -20°C° 0,1 mm 6 m/s 754 mmHg 82%
    13:00 -18°C° 0,1 mm 6 m/s 754 mmHg 82%
    14:00 -18°C° 0,1 mm 6 m/s 754 mmHg 83%
    15:00 -18°C° 0,1 mm 6 m/s 754 mmHg 84%
    16:00 -18°C° 0,1 mm 6 m/s 753 mmHg 85%
    17:00 -18°C° 0,1 mm 6 m/s 753 mmHg 86%
    18:00 -18°C° 0,1 mm 5 m/s 753 mmHg 87%
    19:00 -18°C° 0,1 mm 5 m/s 753 mmHg 88%
    20:00 -18°C° 0,1 mm 5 m/s 753 mmHg 88%
    21:00 -18°C° 0,1 mm 5 m/s 753 mmHg 89%
    22:00 -18°C° 0,1 mm 4 m/s 753 mmHg 89%
    23:00 -18°C° 0,1 mm 4 m/s 753 mmHg 89%

    1 Martie, Joi

    Timp Temperatura Precipitaţii Vânt Presiune Umiditate
    00:00 -18°C° 0,1 mm 4 m/s 753 mmHg 89%
    01:00 -18°C° 0,1 mm 4 m/s 753 mmHg 90%
    02:00 -18°C° 0,1 mm 4 m/s 753 mmHg 90%
    03:00 -19°C° 0,1 mm 4 m/s 753 mmHg 90%
    04:00 -18°C° 0,1 mm 3 m/s 753 mmHg 91%
    05:00 -18°C° 0,1 mm 3 m/s 752 mmHg 91%
    06:00 -18°C° 0,1 mm 3 m/s 752 mmHg 91%
    07:00 -18°C° 0,1 mm 3 m/s 752 mmHg 91%
    08:00 -18°C° 0,1 mm 3 m/s 753 mmHg 91%
    09:00 -17°C° 0 mm 3 m/s 753 mmHg 88%
    10:00 -16°C° 0 mm 3 m/s 753 mmHg 86%
    11:00 -16°C° 0 mm 3 m/s 753 mmHg 83%
    12:00 -15°C° 0 mm 3 m/s 752 mmHg 82%
    13:00 -14°C° 0 mm 3 m/s 752 mmHg 81%
    14:00 -14°C° 0 mm 3 m/s 752 mmHg 80%
    15:00 -14°C° 0 mm 3 m/s 752 mmHg 82%
    16:00 -14°C° 0 mm 3 m/s 752 mmHg 83%
    17:00 -14°C° 0 mm 3 m/s 751 mmHg 85%
    18:00 -13°C° 0 mm 2 m/s 751 mmHg 88%
    19:00 -14°C° 0 mm 2 m/s 751 mmHg 91%
    20:00 -15°C° 0 mm 2 m/s 751 mmHg 94%
    21:00 -14°C° 0,1 mm 2 m/s 751 mmHg 94%
    22:00 -14°C° 0,1 mm 2 m/s 750 mmHg 95%
    23:00 -14°C° 0,1 mm 2 m/s 750 mmHg 95%

    2 Martie, Vineri

    Timp Temperatura Precipitaţii Vânt Presiune Umiditate
    00:00 -14°C° 0,1 mm 2 m/s 750 mmHg 95%
    01:00 -14°C° 0,1 mm 2 m/s 750 mmHg 96%
    02:00 -13°C° 0,1 mm 2 m/s 749 mmHg 96%
    03:00 -12°C° 0 mm 1 m/s 749 mmHg 96%
    04:00 -12°C° 0 mm 1 m/s 748 mmHg 96%
    05:00 -12°C° 0 mm 1 m/s 748 mmHg 97%
    06:00 -12°C° 0 mm 1 m/s 748 mmHg 97%
    07:00 -12°C° 0 mm 1 m/s 748 mmHg 96%
    08:00 -12°C° 0 mm 1 m/s 747 mmHg 96%
    09:00 -11°C° 0 mm 1 m/s 747 mmHg 92%
    10:00 -9°C° 0 mm 1 m/s 747 mmHg 88%
    11:00 -8°C° 0 mm 1 m/s 747 mmHg 84%
    12:00 -8°C° 0 mm 1 m/s 747 mmHg 83%
    13:00 -7°C° 0 mm 1 m/s 747 mmHg 81%
    14:00 -8°C° 0 mm 2 m/s 746 mmHg 80%
    15:00 -7°C° 0 mm 1 m/s 746 mmHg 81%
    16:00 -7°C° 0 mm 1 m/s 746 mmHg 83%
    17:00 -7°C° 0 mm 1 m/s 745 mmHg 85%
    18:00 -8°C° 0 mm 1 m/s 745 mmHg 87%
    19:00 -8°C° 0 mm 1 m/s 745 mmHg 90%
    20:00 -9°C° 0 mm 1 m/s 745 mmHg 92%
    21:00 -9°C° 0 mm 1 m/s 745 mmHg 93%
    22:00 -10°C° 0 mm 1 m/s 745 mmHg 94%
    23:00 -11°C° 0 mm 1 m/s 744 mmHg 95%

    3 Martie, Sâmbătă

    Timp Temperatura Precipitaţii Vânt Presiune Umiditate
    00:00 -11°C° 0 mm 1 m/s 744 mmHg 95%
    01:00 -11°C° 0 mm 1 m/s 744 mmHg 95%
    02:00 -11°C° 0 mm 1 m/s 744 mmHg 96%
    03:00 -11°C° 0 mm 1 m/s 743 mmHg 96%
    04:00 -11°C° 0 mm 1 m/s 743 mmHg 96%
    05:00 -11°C° 0 mm 1 m/s 743 mmHg 96%
    06:00 -11°C° 0 mm 1 m/s 743 mmHg 96%
    07:00 -11°C° 0 mm 1 m/s 743 mmHg 97%
    08:00 -11°C° 0 mm 1 m/s 743 mmHg 97%
    09:00 -12°C° 0 mm 2 m/s 743 mmHg 93%
    10:00 -10°C° 0 mm 2 m/s 743 mmHg 90%
    11:00 -9°C° 0 mm 2 m/s 743 mmHg 87%
    12:00 -8°C° 0 mm 2 m/s 742 mmHg 85%
    13:00 -7°C° 0 mm 2 m/s 742 mmHg 84%
    14:00 -8°C° 0 mm 3 m/s 741 mmHg 82%
    15:00 -8°C° 0 mm 3 m/s 741 mmHg 83%
    16:00 -7°C° 0 mm 2 m/s 741 mmHg 85%
    17:00 -7°C° 0 mm 2 m/s 741 mmHg 86%
    18:00 -8°C° 0 mm 2 m/s 741 mmHg 88%
    19:00 -12°C° 0 mm 3 m/s 741 mmHg 90%
    20:00 -13°C° 0 mm 3 m/s 741 mmHg 93%
    21:00 -13°C° 0 mm 3 m/s 741 mmHg 93%
    22:00 -13°C° 0 mm 3 m/s 741 mmHg 93%
    23:00 -14°C° 0 mm 3 m/s 741 mmHg 94%
    Arată mai mult